EW1135 Weather Reports


Display with metric or nautical units.
time (UTC)temp
F
wind
direction
speed
MPH
gust
MPH
rain 1hr
in
rain 24hr
in
rain mn
in
humidity
%
barometer
mb
20260904070010 56 175 10.0 0.0 0.00 0.00 1.68 88 1005.1
20260904064516 56 168 10.0 0.0 0.00 0.00 1.68 88 1004.9
20260904063058 55 173 11.0 0.0 0.00 0.00 1.67 88 1005.0
20260904061603 55 109 8.0 0.0 0.00 0.00 1.66 88 1005.0
20260904060057 56 174 8.0 0.0 0.00 0.00 1.57 88 1005.2
20260904054600 56 109 6.0 0.0 0.00 0.00 1.38 87 1005.0
20260904053136 56 147 8.0 0.0 0.00 0.00 1.36 87 1005.0
20260904051559 56 187 9.0 0.0 0.00 0.00 1.36 87 1005.2
20260904050057 56 167 10.0 0.0 0.00 0.00 1.32 87 1005.6
20260904044553 56 181 12.0 0.0 0.00 0.00 1.27 87 1005.6
20260904043041 56 163 13.0 0.0 0.00 0.00 1.25 87 1005.5
20260904041552 56 184 12.0 0.0 0.00 0.00 1.24 87 1005.5
20260904040039 56 187 12.0 0.0 0.00 0.00 1.21 87 1005.6
20260904034538 57 222 15.0 0.0 0.00 0.00 1.19 87 1005.7
20260904033040 57 204 14.0 0.0 0.00 0.00 1.12 87 1005.8
20260904031537 57 221 18.0 0.0 0.00 0.00 1.09 87 1005.7
20260904030037 57 215 16.0 0.0 0.00 0.00 1.07 87 1005.7
20260904024536 57 223 19.0 0.0 0.00 0.00 1.06 87 1005.7
20260904023024 58 210 22.0 0.0 0.00 0.00 1.01 86 1005.7
20260904021529 58 231 20.0 0.0 0.00 0.00 0.99 86 1005.7
20260904020022 58 212 18.0 0.0 0.00 0.00 0.98 85 1005.8
20260904014522 58 212 15.0 0.0 0.00 0.00 0.98 85 1005.8
20260904013022 58 210 18.0 0.0 0.00 0.00 0.97 85 1005.8
20260904011521 58 203 17.0 0.0 0.00 0.00 0.95 85 1005.8
20260904010020 58 208 15.0 0.0 0.00 0.00 0.95 84 1005.8
20260904004519 58 217 12.0 0.0 0.00 0.00 0.93 84 1005.9
20260904003009 58 225 14.0 0.0 0.00 0.00 0.93 84 1005.9
20260904001506 58 234 16.0 0.0 0.00 0.00 0.87 83 1006.0
20260904000004 59 219 14.0 0.0 0.00 0.00 0.87 84 1006.2
20260903234503 59 210 14.0 0.0 0.00 0.00 0.87 84 1006.3
20260903233002 58 209 16.0 0.0 0.00 0.00 0.87 84 1006.5
20260903231503 58 216 20.0 0.0 0.00 0.00 0.87 84 1006.6
20260903230002 59 219 22.0 0.0 0.00 0.00 0.87 84 1006.5
20260903224600 59 204 19.0 0.0 0.00 0.00 0.87 85 1006.7
20260903223048 59 219 19.0 0.0 0.00 0.00 0.87 86 1006.6
20260903221547 59 227 17.0 0.0 0.00 0.00 0.86 86 1006.7
20260903220050 59 215 19.0 0.0 0.00 0.00 0.86 86 1006.7
20260903214547 59 227 19.0 0.0 0.00 0.00 0.86 86 1006.8
20260903213051 59 221 17.0 0.0 0.00 0.00 0.86 87 1006.8
20260903211545 59 219 17.0 0.0 0.00 0.00 0.86 87 1006.8
20260903210044 60 215 17.0 0.0 0.00 0.00 0.86 88 1006.6
20260903204546 58 213 15.0 0.0 0.00 0.00 0.86 87 1006.7
20260903203024 58 201 19.0 0.0 0.00 0.00 0.86 87 1006.8
20260903201531 58 222 15.0 0.0 0.00 0.00 0.84 87 1007.2
20260903200012 58 225 18.0 0.0 0.00 0.00 0.80 88 1006.9
20260903194511 58 223 18.0 0.0 0.00 0.00 0.80 88 1007.0
20260903193009 56 221 10.0 0.0 0.00 0.00 0.80 88 1007.0
20260903191507 55 222 12.0 0.0 0.00 0.00 0.80 87 1007.3
20260903190007 55 205 18.0 0.0 0.00 0.00 0.78 87 1007.7
20260903184506 55 230 12.0 0.0 0.00 0.00 0.70 87 1007.7
20260903183006 54 193 8.0 0.0 0.00 0.00 0.64 87 1007.7
20260903181505 54 223 14.0 0.0 0.00 0.00 0.60 87 1007.7
20260903180020 54 195 15.0 0.0 0.00 0.00 0.55 86 1007.7
20260903174544 55 219 14.0 0.0 0.00 0.00 0.53 86 1007.6
20260903173047 55 214 16.0 0.0 0.00 0.00 0.52 86 1007.6
20260903171521 56 210 19.0 0.0 0.00 0.00 0.50 86 1007.3
20260903170027 58 244 21.0 0.0 0.00 0.00 0.48 86 1007.4
20260903164509 58 203 14.0 0.0 0.00 0.00 0.46 86 1007.2
20260903163010 58 213 14.0 0.0 0.00 0.00 0.46 87 1006.9
20260903161507 58 221 17.0 0.0 0.00 0.00 0.46 88 1007.1
20260903160005 58 247 21.0 0.0 0.00 0.00 0.46 88 1007.4
20260903154507 58 213 23.0 0.0 0.00 0.00 0.46 88 1007.4
20260903153001 58 216 23.0 0.0 0.00 0.00 0.46 88 1007.2
20260903151602 58 219 15.0 0.0 0.00 0.00 0.46 88 1006.9
20260903150059 56 196 14.0 0.0 0.00 0.00 0.46 88 1007.2
20260903144541 57 202 19.0 0.0 0.00 0.00 0.45 88 1007.1
20260903143038 58 206 23.0 0.0 0.00 0.00 0.45 88 1007.1
20260903141526 58 227 20.0 0.0 0.00 0.00 0.41 88 1007.0
20260903140034 58 221 21.0 0.0 0.00 0.00 0.41 88 1006.9
20260903134521 58 212 19.0 0.0 0.00 0.00 0.41 88 1006.9
20260903133021 58 191 20.0 0.0 0.00 0.00 0.41 88 1006.9
20260903131520 57 214 17.0 0.0 0.00 0.00 0.41 88 1007.0
20260903130026 57 210 20.0 0.0 0.00 0.00 0.41 88 1007.1
20260903124519 57 225 20.0 0.0 0.00 0.00 0.41 88 1007.2
20260903123030 57 211 22.0 0.0 0.00 0.00 0.41 89 1007.1
20260903121504 57 209 21.0 0.0 0.00 0.00 0.41 89 1007.0
20260903120002 57 265 19.0 0.0 0.00 0.00 0.40 88 1007.5
20260903114609 57 254 20.0 0.0 0.00 0.00 0.38 88 1007.7
20260903113107 57 260 20.0 0.0 0.00 0.00 0.23 88 1008.1
20260903111557 57 219 19.0 0.0 0.00 0.00 0.14 88 1007.7
20260903110104 57 199 21.0 0.0 0.00 0.00 0.08 88 1007.3
20260903104602 57 228 20.0 0.0 0.00 0.00 0.08 88 1007.5
20260903103054 58 200 21.0 0.0 0.00 0.00 0.00 87 1007.7
20260903101536 58 210 22.0 0.0 0.00 0.00 0.00 88 1007.7
20260903100036 58 204 24.0 0.0 0.00 0.00 0.00 88 1007.6
20260903094515 58 224 25.0 0.0 0.00 0.00 0.00 88 1007.8
20260903093036 58 218 23.0 0.0 0.00 0.00 0.00 88 1007.7
20260903091513 58 200 22.0 0.0 0.00 0.00 0.00 88 1007.9
20260903090013 58 220 24.0 0.0 0.00 0.00 0.00 88 1008.0
20260903084524 58 238 22.0 0.0 0.00 0.00 0.00 88 1008.1
20260903083011 58 219 21.0 0.0 0.00 0.00 0.00 88 1008.1
20260903081512 58 212 20.0 0.0 0.00 0.00 0.00 88 1008.2
20260903080009 57 197 20.0 0.0 0.00 0.00 0.00 88 1008.3
20260903074602 57 233 19.0 0.0 0.00 0.00 0.00 88 1008.3
20260903073105 57 207 21.0 0.0 0.00 0.00 0.00 88 1008.2
20260903071557 58 222 21.0 0.0 0.00 0.00 0.00 88 1008.2